GEFSGL_prec_meanprecacc_264.txt.gz
Total_Precipitation_Accumulation
1.36 1.31 1.18 0.97 0.85 0.85 0.87 0.86 0.81 0.83 0.80 0.81 0.81 0.84 0.97 0.99 1.00 1.16 1.27 1.29 1.40 1.49 1.47 1.50 1.67 1.79 1.91 1.94 1.94 1.94 1.99 1.95 1.81 1.55 1.22 1.04 1.12 1.13 1.19 1.04 1.02 1.07 0.99
1.07 0.97 0.85 0.72 0.66 0.68 0.69 0.65 0.58 0.60 0.56 0.63 0.69 0.68 0.87 1.04 1.07 1.10 1.10 1.09 1.22 1.31 1.34 1.42 1.46 1.47 1.59 1.73 1.82 1.80 1.88 1.92 1.89 1.77 1.47 1.24 1.22 1.28 1.43 1.42 1.30 1.20 1.16
1.00 0.85 0.77 0.72 0.70 0.68 0.62 0.56 0.47 0.44 0.50 0.57 0.66 0.65 0.71 0.86 0.98 0.99 0.97 0.98 1.04 1.12 1.16 1.23 1.26 1.34 1.48 1.48 1.54 1.62 1.69 1.75 1.87 1.82 1.73 1.60 1.43 1.36 1.41 1.38 1.43 1.56 1.49
1.17 0.97 0.86 0.81 0.71 0.62 0.53 0.49 0.43 0.47 0.53 0.55 0.53 0.57 0.62 0.73 0.84 0.84 0.85 0.87 0.90 0.91 1.03 1.11 1.16 1.21 1.31 1.36 1.36 1.49 1.62 1.71 1.75 1.73 1.68 1.61 1.55 1.50 1.48 1.45 1.50 1.62 1.70
0.89 0.68 0.60 0.60 0.58 0.47 0.43 0.42 0.39 0.39 0.38 0.42 0.39 0.41 0.46 0.55 0.61 0.62 0.69 0.77 0.83 0.87 0.96 0.99 1.02 0.99 1.02 1.08 1.07 1.26 1.43 1.61 1.68 1.71 1.63 1.51 1.46 1.46 1.42 1.42 1.50 1.67 1.71
0.59 0.49 0.45 0.40 0.36 0.34 0.34 0.33 0.30 0.27 0.23 0.29 0.31 0.34 0.37 0.40 0.50 0.51 0.54 0.64 0.73 0.79 0.86 0.90 0.98 0.99 0.93 0.88 0.86 0.93 1.06 1.20 1.40 1.53 1.56 1.49 1.41 1.39 1.47 1.55 1.55 1.64 1.74
0.34 0.29 0.29 0.31 0.28 0.25 0.26 0.27 0.27 0.26 0.22 0.23 0.26 0.32 0.32 0.30 0.36 0.36 0.49 0.66 0.68 0.66 0.66 0.80 0.93 0.98 1.01 1.02 0.91 0.89 0.88 0.90 1.01 1.20 1.35 1.36 1.35 1.37 1.46 1.54 1.59 1.62 1.51
0.26 0.21 0.21 0.24 0.25 0.26 0.28 0.29 0.27 0.24 0.22 0.27 0.29 0.34 0.31 0.24 0.28 0.33 0.42 0.55 0.60 0.57 0.58 0.70 0.85 0.97 1.02 1.05 1.01 1.06 1.01 0.88 0.85 0.92 1.11 1.21 1.24 1.39 1.56 1.70 1.78 1.75 1.65
0.22 0.22 0.21 0.23 0.24 0.24 0.23 0.24 0.24 0.23 0.22 0.27 0.33 0.34 0.29 0.23 0.25 0.32 0.42 0.54 0.61 0.58 0.56 0.63 0.78 0.88 1.01 1.06 1.01 1.10 1.09 0.90 0.82 0.91 0.95 1.03 1.16 1.32 1.51 1.70 1.78 1.75 1.71
0.23 0.25 0.28 0.27 0.24 0.22 0.23 0.25 0.24 0.23 0.23 0.24 0.27 0.28 0.26 0.27 0.29 0.30 0.36 0.42 0.52 0.59 0.57 0.61 0.82 0.90 0.96 0.92 0.92 1.12 1.21 1.06 0.81 0.81 0.87 1.01 1.12 1.28 1.51 1.66 1.91 1.90 1.69
0.26 0.29 0.28 0.26 0.25 0.25 0.27 0.29 0.28 0.26 0.25 0.25 0.25 0.24 0.24 0.25 0.30 0.30 0.35 0.32 0.35 0.41 0.46 0.51 0.53 0.68 0.73 0.77 0.88 0.97 1.09 0.99 0.87 0.96 1.05 1.09 1.18 1.26 1.37 1.49 1.73 1.92 1.83
0.25 0.25 0.24 0.23 0.24 0.27 0.28 0.25 0.23 0.23 0.23 0.23 0.22 0.22 0.24 0.24 0.24 0.27 0.31 0.30 0.33 0.36 0.38 0.42 0.48 0.62 0.65 0.69 0.74 0.79 0.84 0.89 0.93 1.07 1.10 1.01 1.06 1.15 1.21 1.30 1.45 1.59 1.48
0.23 0.24 0.25 0.27 0.29 0.29 0.30 0.26 0.24 0.23 0.24 0.26 0.28 0.29 0.28 0.27 0.24 0.27 0.29 0.30 0.32 0.33 0.35 0.43 0.46 0.55 0.54 0.56 0.64 0.67 0.74 0.94 1.08 1.04 1.02 0.97 0.97 1.04 1.07 1.20 1.36 1.49 1.46
0.30 0.29 0.31 0.31 0.32 0.33 0.30 0.28 0.25 0.24 0.28 0.30 0.30 0.30 0.30 0.31 0.26 0.26 0.26 0.29 0.34 0.35 0.37 0.43 0.47 0.51 0.51 0.52 0.59 0.68 0.78 0.94 1.10 0.98 0.86 0.87 0.91 1.03 1.12 1.12 1.20 1.26 1.40
0.30 0.32 0.35 0.34 0.36 0.36 0.34 0.32 0.31 0.30 0.33 0.35 0.33 0.34 0.32 0.30 0.31 0.34 0.32 0.32 0.35 0.36 0.40 0.48 0.59 0.68 0.67 0.67 0.73 0.77 0.80 0.82 0.88 0.83 0.83 0.90 0.98 1.01 1.07 1.11 1.12 1.11 1.12
0.28 0.32 0.34 0.37 0.38 0.39 0.40 0.38 0.39 0.37 0.38 0.37 0.36 0.34 0.30 0.32 0.36 0.40 0.42 0.41 0.43 0.45 0.51 0.53 0.65 0.80 0.85 0.87 0.87 0.88 0.89 0.85 0.87 0.84 0.88 0.92 0.94 0.93 0.95 1.03 1.13 1.18 1.10
0.28 0.31 0.34 0.34 0.35 0.38 0.40 0.44 0.46 0.43 0.38 0.36 0.36 0.36 0.33 0.33 0.35 0.36 0.39 0.43 0.47 0.54 0.53 0.57 0.75 0.82 0.81 0.84 0.90 0.94 0.88 0.78 0.79 0.81 0.79 0.80 0.81 0.81 0.83 0.86 0.94 1.02 1.05
0.31 0.34 0.37 0.36 0.36 0.40 0.41 0.41 0.45 0.47 0.44 0.37 0.34 0.35 0.36 0.35 0.34 0.35 0.39 0.44 0.48 0.54 0.58 0.74 0.92 0.97 0.91 0.85 0.83 0.80 0.73 0.68 0.67 0.68 0.71 0.73 0.77 0.79 0.79 0.77 0.78 0.82 0.88
0.34 0.33 0.35 0.37 0.38 0.39 0.40 0.41 0.40 0.40 0.40 0.38 0.36 0.36 0.38 0.38 0.37 0.38 0.40 0.41 0.47 0.53 0.62 0.75 0.87 0.96 0.92 0.79 0.71 0.68 0.64 0.64 0.62 0.64 0.69 0.74 0.75 0.77 0.76 0.76 0.75 0.78 0.81
0.31 0.37 0.38 0.38 0.37 0.39 0.41 0.41 0.40 0.41 0.43 0.43 0.42 0.45 0.46 0.42 0.40 0.44 0.46 0.47 0.51 0.54 0.56 0.59 0.62 0.64 0.61 0.60 0.64 0.63 0.62 0.65 0.66 0.65 0.69 0.72 0.77 0.83 0.82 0.78 0.76 0.75 0.75
0.31 0.39 0.41 0.37 0.34 0.38 0.44 0.46 0.44 0.42 0.43 0.44 0.43 0.46 0.49 0.45 0.45 0.48 0.47 0.47 0.51 0.56 0.56 0.54 0.55 0.56 0.56 0.55 0.57 0.58 0.59 0.62 0.64 0.67 0.71 0.75 0.76 0.78 0.82 0.82 0.78 0.77 0.77
0.31 0.36 0.40 0.40 0.40 0.43 0.47 0.49 0.49 0.46 0.43 0.41 0.40 0.43 0.47 0.46 0.49 0.48 0.46 0.47 0.49 0.52 0.54 0.53 0.50 0.52 0.56 0.55 0.57 0.59 0.60 0.60 0.61 0.68 0.73 0.78 0.80 0.78 0.77 0.78 0.78 0.78 0.77
0.32 0.35 0.38 0.43 0.46 0.51 0.52 0.51 0.49 0.46 0.45 0.44 0.46 0.45 0.45 0.45 0.46 0.47 0.48 0.50 0.50 0.51 0.52 0.52 0.50 0.50 0.51 0.50 0.52 0.56 0.57 0.57 0.61 0.69 0.78 0.84 0.87 0.87 0.84 0.81 0.78 0.81 0.81
0.35 0.39 0.41 0.45 0.47 0.48 0.49 0.52 0.53 0.51 0.50 0.48 0.46 0.47 0.48 0.47 0.48 0.50 0.48 0.47 0.47 0.49 0.49 0.50 0.49 0.48 0.51 0.53 0.53 0.54 0.54 0.56 0.60 0.66 0.75 0.84 0.88 0.89 0.93 0.95 0.92 0.90 0.89
0.41 0.43 0.44 0.47 0.48 0.49 0.51 0.52 0.55 0.55 0.53 0.53 0.52 0.50 0.51 0.51 0.51 0.53 0.50 0.48 0.48 0.48 0.50 0.51 0.50 0.48 0.49 0.51 0.53 0.55 0.64 0.66 0.62 0.63 0.68 0.80 0.87 0.88 0.89 0.93 0.98 1.00 0.99
0.47 0.49 0.48 0.49 0.53 0.53 0.55 0.56 0.54 0.54 0.53 0.53 0.52 0.53 0.55 0.57 0.59 0.62 0.61 0.61 0.61 0.58 0.58 0.58 0.57 0.58 0.58 0.55 0.54 0.61 0.66 0.63 0.61 0.64 0.66 0.71 0.79 0.85 0.89 0.92 0.94 1.01 1.06

GEFSGL_prec_meanprecacc_270.txt.gz
Total_Precipitation_Accumulation
1.36 1.32 1.19 0.98 0.87 0.86 0.88 0.88 0.83 0.85 0.82 0.83 0.82 0.86 0.99 1.01 1.02 1.18 1.29 1.31 1.42 1.52 1.50 1.53 1.70 1.82 1.94 1.96 1.95 1.94 1.99 1.96 1.82 1.57 1.24 1.06 1.14 1.15 1.22 1.06 1.04 1.08 1.00
1.08 0.98 0.86 0.73 0.67 0.69 0.70 0.67 0.61 0.62 0.58 0.64 0.70 0.70 0.89 1.07 1.09 1.12 1.12 1.11 1.24 1.33 1.36 1.44 1.49 1.50 1.61 1.74 1.83 1.80 1.88 1.92 1.90 1.78 1.48 1.25 1.23 1.30 1.45 1.44 1.31 1.20 1.17
1.01 0.86 0.79 0.73 0.71 0.70 0.64 0.59 0.50 0.46 0.51 0.58 0.68 0.67 0.73 0.89 1.00 1.00 0.99 1.00 1.06 1.13 1.17 1.25 1.28 1.35 1.49 1.49 1.55 1.63 1.70 1.76 1.88 1.83 1.74 1.61 1.44 1.36 1.42 1.39 1.44 1.57 1.50
1.19 0.99 0.89 0.83 0.74 0.66 0.55 0.52 0.46 0.49 0.55 0.56 0.54 0.58 0.64 0.75 0.86 0.86 0.87 0.89 0.92 0.93 1.04 1.12 1.17 1.22 1.32 1.37 1.37 1.49 1.63 1.72 1.75 1.73 1.68 1.61 1.55 1.50 1.49 1.46 1.51 1.64 1.71
0.91 0.70 0.63 0.63 0.62 0.52 0.46 0.44 0.41 0.41 0.40 0.43 0.41 0.42 0.47 0.57 0.62 0.63 0.70 0.78 0.84 0.88 0.97 1.00 1.03 1.01 1.03 1.09 1.08 1.27 1.43 1.61 1.68 1.72 1.63 1.51 1.47 1.47 1.43 1.44 1.52 1.70 1.73
0.61 0.52 0.47 0.43 0.39 0.38 0.38 0.36 0.32 0.29 0.26 0.31 0.33 0.37 0.39 0.41 0.51 0.52 0.55 0.65 0.74 0.80 0.87 0.90 0.98 1.01 0.95 0.90 0.88 0.94 1.07 1.20 1.40 1.53 1.57 1.50 1.42 1.40 1.48 1.57 1.57 1.66 1.77
0.36 0.30 0.30 0.31 0.29 0.26 0.28 0.29 0.29 0.27 0.24 0.25 0.29 0.36 0.34 0.32 0.37 0.37 0.50 0.67 0.68 0.67 0.67 0.81 0.94 0.99 1.02 1.03 0.92 0.90 0.89 0.91 1.02 1.21 1.35 1.37 1.36 1.38 1.47 1.56 1.63 1.67 1.53
0.29 0.23 0.22 0.25 0.26 0.27 0.29 0.30 0.29 0.27 0.25 0.30 0.32 0.37 0.33 0.25 0.29 0.34 0.44 0.56 0.61 0.57 0.59 0.70 0.86 0.98 1.04 1.07 1.02 1.07 1.02 0.90 0.87 0.93 1.11 1.21 1.24 1.40 1.58 1.71 1.82 1.80 1.67
0.24 0.24 0.22 0.24 0.26 0.25 0.24 0.26 0.25 0.25 0.24 0.29 0.37 0.37 0.31 0.24 0.26 0.33 0.44 0.55 0.62 0.59 0.57 0.65 0.80 0.89 1.03 1.08 1.03 1.12 1.10 0.91 0.84 0.92 0.96 1.04 1.17 1.33 1.52 1.72 1.81 1.79 1.74
0.25 0.27 0.30 0.28 0.25 0.24 0.26 0.27 0.25 0.24 0.25 0.28 0.32 0.32 0.28 0.29 0.31 0.32 0.39 0.44 0.54 0.60 0.59 0.63 0.84 0.91 0.97 0.94 0.93 1.13 1.22 1.06 0.82 0.81 0.88 1.02 1.13 1.28 1.52 1.67 1.92 1.92 1.71
0.29 0.31 0.30 0.27 0.26 0.27 0.28 0.31 0.29 0.27 0.26 0.27 0.27 0.27 0.26 0.27 0.31 0.31 0.36 0.33 0.37 0.43 0.48 0.53 0.55 0.69 0.74 0.79 0.89 0.97 1.10 1.00 0.88 0.96 1.06 1.09 1.19 1.26 1.38 1.49 1.74 1.93 1.85
0.28 0.28 0.27 0.25 0.26 0.28 0.30 0.27 0.25 0.24 0.25 0.24 0.23 0.23 0.26 0.26 0.26 0.28 0.32 0.31 0.34 0.37 0.39 0.44 0.50 0.63 0.66 0.70 0.75 0.80 0.86 0.90 0.94 1.07 1.10 1.01 1.07 1.16 1.22 1.32 1.46 1.60 1.50
0.26 0.26 0.28 0.30 0.32 0.32 0.33 0.29 0.27 0.25 0.25 0.27 0.30 0.30 0.30 0.29 0.25 0.29 0.31 0.31 0.34 0.34 0.36 0.44 0.47 0.56 0.55 0.57 0.65 0.68 0.74 0.95 1.08 1.04 1.02 0.97 0.97 1.04 1.08 1.22 1.38 1.52 1.48
0.33 0.33 0.36 0.36 0.37 0.38 0.35 0.32 0.29 0.27 0.31 0.33 0.32 0.33 0.32 0.32 0.28 0.27 0.28 0.30 0.35 0.36 0.39 0.45 0.48 0.53 0.52 0.53 0.60 0.69 0.79 0.95 1.10 0.98 0.87 0.87 0.91 1.03 1.13 1.14 1.22 1.28 1.43
0.31 0.34 0.39 0.41 0.45 0.45 0.40 0.37 0.37 0.36 0.38 0.39 0.36 0.37 0.35 0.32 0.33 0.36 0.33 0.33 0.36 0.37 0.42 0.50 0.61 0.69 0.68 0.68 0.74 0.78 0.80 0.82 0.89 0.84 0.84 0.91 0.98 1.01 1.08 1.13 1.15 1.14 1.15
0.30 0.34 0.37 0.41 0.45 0.47 0.49 0.47 0.48 0.46 0.47 0.44 0.43 0.40 0.35 0.36 0.40 0.42 0.45 0.43 0.45 0.47 0.53 0.55 0.66 0.81 0.86 0.87 0.88 0.89 0.90 0.86 0.88 0.85 0.88 0.93 0.94 0.94 0.96 1.05 1.16 1.21 1.13
0.30 0.34 0.37 0.39 0.41 0.44 0.47 0.51 0.53 0.51 0.47 0.44 0.43 0.43 0.39 0.38 0.39 0.40 0.42 0.46 0.50 0.56 0.55 0.59 0.78 0.83 0.82 0.85 0.90 0.95 0.88 0.78 0.80 0.82 0.80 0.81 0.82 0.82 0.83 0.88 0.97 1.05 1.07
0.32 0.37 0.40 0.41 0.42 0.45 0.46 0.46 0.50 0.52 0.49 0.42 0.38 0.39 0.39 0.39 0.38 0.39 0.43 0.47 0.52 0.57 0.60 0.77 0.94 0.99 0.93 0.86 0.84 0.81 0.74 0.68 0.68 0.69 0.72 0.74 0.78 0.80 0.79 0.78 0.80 0.85 0.90
0.35 0.34 0.37 0.40 0.42 0.45 0.46 0.47 0.45 0.45 0.45 0.43 0.40 0.39 0.42 0.42 0.41 0.42 0.44 0.46 0.51 0.56 0.65 0.78 0.90 0.99 0.94 0.81 0.73 0.69 0.66 0.65 0.63 0.65 0.70 0.75 0.76 0.78 0.77 0.77 0.76 0.81 0.84
0.32 0.39 0.40 0.40 0.40 0.42 0.45 0.46 0.45 0.47 0.49 0.49 0.48 0.50 0.51 0.47 0.45 0.49 0.52 0.53 0.56 0.59 0.61 0.63 0.66 0.67 0.63 0.62 0.65 0.64 0.63 0.66 0.67 0.66 0.70 0.73 0.78 0.84 0.83 0.79 0.77 0.77 0.77
0.33 0.41 0.43 0.39 0.36 0.40 0.47 0.49 0.47 0.47 0.48 0.50 0.50 0.53 0.57 0.51 0.51 0.53 0.53 0.53 0.58 0.61 0.60 0.58 0.59 0.59 0.59 0.58 0.60 0.60 0.61 0.63 0.65 0.68 0.72 0.76 0.77 0.78 0.82 0.83 0.79 0.78 0.78
0.33 0.38 0.42 0.42 0.42 0.45 0.50 0.51 0.52 0.49 0.47 0.46 0.46 0.49 0.54 0.53 0.55 0.54 0.52 0.53 0.55 0.57 0.58 0.57 0.53 0.56 0.59 0.59 0.61 0.63 0.62 0.61 0.62 0.69 0.74 0.79 0.80 0.78 0.78 0.79 0.79 0.79 0.78
0.34 0.36 0.40 0.45 0.48 0.54 0.55 0.53 0.51 0.49 0.48 0.47 0.50 0.50 0.50 0.50 0.52 0.53 0.54 0.56 0.57 0.57 0.58 0.58 0.54 0.54 0.55 0.54 0.55 0.59 0.60 0.60 0.63 0.71 0.80 0.86 0.88 0.88 0.86 0.82 0.80 0.82 0.83
0.36 0.40 0.43 0.46 0.49 0.50 0.51 0.55 0.56 0.54 0.54 0.52 0.51 0.52 0.53 0.51 0.52 0.54 0.52 0.51 0.52 0.54 0.54 0.55 0.55 0.54 0.56 0.57 0.58 0.58 0.58 0.59 0.62 0.68 0.77 0.87 0.90 0.92 0.95 0.97 0.94 0.91 0.91
0.43 0.44 0.45 0.48 0.49 0.51 0.53 0.54 0.58 0.58 0.57 0.57 0.57 0.54 0.55 0.54 0.54 0.56 0.54 0.52 0.51 0.52 0.54 0.55 0.54 0.53 0.54 0.55 0.57 0.60 0.70 0.71 0.66 0.65 0.71 0.82 0.89 0.90 0.91 0.95 1.00 1.02 1.01
0.50 0.51 0.50 0.51 0.55 0.55 0.58 0.58 0.57 0.58 0.58 0.57 0.56 0.56 0.58 0.60 0.62 0.65 0.65 0.65 0.65 0.62 0.61 0.62 0.60 0.60 0.61 0.59 0.58 0.65 0.71 0.67 0.65 0.68 0.70 0.74 0.82 0.88 0.91 0.94 0.96 1.03 1.09

GEFSGL_prec_meanprecacc_276.txt.gz
Total_Precipitation_Accumulation
1.37 1.33 1.20 0.99 0.87 0.87 0.89 0.89 0.86 0.88 0.84 0.85 0.85 0.89 1.02 1.03 1.05 1.21 1.31 1.34 1.45 1.54 1.52 1.55 1.73 1.85 1.97 1.98 1.98 1.97 2.01 1.97 1.83 1.59 1.26 1.10 1.20 1.21 1.25 1.09 1.06 1.11 1.04
1.09 0.99 0.86 0.74 0.68 0.70 0.71 0.68 0.62 0.64 0.61 0.66 0.73 0.72 0.92 1.09 1.11 1.14 1.14 1.13 1.26 1.35 1.38 1.46 1.51 1.52 1.63 1.76 1.86 1.82 1.89 1.93 1.90 1.79 1.50 1.27 1.27 1.34 1.48 1.46 1.33 1.23 1.19
1.03 0.87 0.79 0.74 0.71 0.70 0.64 0.59 0.51 0.48 0.53 0.60 0.69 0.69 0.76 0.91 1.02 1.02 1.00 1.01 1.07 1.14 1.18 1.26 1.29 1.36 1.51 1.50 1.56 1.64 1.71 1.77 1.88 1.84 1.75 1.62 1.46 1.39 1.45 1.42 1.47 1.59 1.52
1.20 1.00 0.89 0.84 0.75 0.66 0.56 0.52 0.47 0.50 0.56 0.58 0.56 0.60 0.66 0.77 0.88 0.88 0.89 0.90 0.92 0.93 1.05 1.13 1.18 1.23 1.33 1.37 1.38 1.50 1.64 1.73 1.76 1.74 1.69 1.62 1.56 1.52 1.51 1.49 1.54 1.66 1.73
0.92 0.71 0.63 0.64 0.62 0.53 0.47 0.45 0.42 0.42 0.41 0.44 0.42 0.43 0.48 0.58 0.64 0.64 0.71 0.79 0.85 0.88 0.98 1.01 1.04 1.01 1.04 1.10 1.09 1.27 1.44 1.62 1.69 1.73 1.64 1.52 1.47 1.49 1.46 1.47 1.54 1.72 1.75
0.62 0.52 0.48 0.43 0.39 0.38 0.39 0.37 0.32 0.30 0.26 0.31 0.34 0.38 0.40 0.42 0.53 0.54 0.56 0.66 0.75 0.80 0.88 0.92 0.99 1.01 0.95 0.91 0.89 0.95 1.07 1.21 1.40 1.54 1.58 1.50 1.43 1.41 1.51 1.61 1.60 1.70 1.80
0.37 0.31 0.31 0.32 0.29 0.26 0.28 0.29 0.30 0.28 0.25 0.27 0.31 0.38 0.35 0.33 0.39 0.38 0.51 0.68 0.69 0.69 0.69 0.84 0.96 1.00 1.03 1.04 0.93 0.92 0.90 0.92 1.02 1.21 1.36 1.37 1.36 1.39 1.49 1.59 1.65 1.70 1.57
0.29 0.24 0.23 0.25 0.26 0.27 0.29 0.31 0.30 0.28 0.27 0.32 0.34 0.39 0.34 0.26 0.30 0.35 0.45 0.57 0.62 0.58 0.60 0.72 0.88 0.99 1.05 1.08 1.03 1.08 1.03 0.90 0.87 0.93 1.11 1.21 1.24 1.41 1.60 1.74 1.83 1.83 1.70
0.26 0.25 0.23 0.24 0.26 0.25 0.25 0.26 0.26 0.25 0.25 0.30 0.38 0.39 0.32 0.25 0.28 0.35 0.46 0.57 0.64 0.61 0.59 0.66 0.81 0.90 1.04 1.10 1.04 1.13 1.11 0.91 0.84 0.92 0.96 1.05 1.18 1.33 1.54 1.74 1.82 1.82 1.77
0.25 0.28 0.30 0.29 0.25 0.24 0.26 0.28 0.25 0.24 0.25 0.29 0.33 0.33 0.29 0.30 0.32 0.33 0.40 0.45 0.55 0.61 0.61 0.64 0.85 0.91 0.99 0.95 0.94 1.14 1.23 1.07 0.82 0.82 0.89 1.03 1.14 1.29 1.53 1.69 1.93 1.94 1.74
0.29 0.32 0.30 0.28 0.26 0.27 0.29 0.31 0.29 0.27 0.26 0.27 0.28 0.28 0.27 0.28 0.33 0.34 0.39 0.34 0.38 0.44 0.49 0.54 0.56 0.70 0.76 0.81 0.90 0.98 1.11 1.01 0.88 0.97 1.06 1.10 1.20 1.27 1.40 1.52 1.75 1.94 1.87
0.28 0.28 0.27 0.25 0.26 0.28 0.31 0.28 0.25 0.25 0.26 0.25 0.25 0.24 0.26 0.27 0.28 0.30 0.34 0.34 0.37 0.39 0.41 0.45 0.51 0.64 0.67 0.72 0.76 0.81 0.87 0.91 0.94 1.08 1.11 1.01 1.07 1.17 1.24 1.35 1.48 1.61 1.52
0.26 0.27 0.29 0.30 0.33 0.33 0.34 0.30 0.27 0.26 0.26 0.28 0.31 0.31 0.31 0.30 0.26 0.30 0.32 0.33 0.36 0.37 0.38 0.47 0.49 0.57 0.56 0.58 0.66 0.69 0.75 0.96 1.09 1.05 1.03 0.98 0.98 1.05 1.10 1.25 1.41 1.53 1.50
0.33 0.33 0.37 0.38 0.40 0.40 0.36 0.33 0.30 0.28 0.32 0.34 0.34 0.34 0.34 0.34 0.29 0.29 0.30 0.32 0.37 0.38 0.40 0.47 0.51 0.54 0.54 0.55 0.62 0.70 0.80 0.96 1.11 0.99 0.87 0.88 0.92 1.04 1.14 1.17 1.24 1.30 1.44
0.32 0.35 0.40 0.42 0.47 0.50 0.47 0.42 0.40 0.39 0.41 0.41 0.38 0.39 0.37 0.34 0.35 0.39 0.36 0.36 0.39 0.40 0.44 0.52 0.63 0.71 0.70 0.70 0.76 0.79 0.82 0.83 0.90 0.85 0.85 0.91 0.99 1.02 1.09 1.16 1.17 1.15 1.15
0.30 0.34 0.37 0.42 0.46 0.49 0.52 0.52 0.55 0.53 0.53 0.49 0.47 0.43 0.38 0.39 0.43 0.46 0.48 0.47 0.49 0.51 0.56 0.57 0.69 0.84 0.88 0.90 0.91 0.91 0.92 0.87 0.89 0.86 0.89 0.93 0.95 0.94 0.96 1.07 1.18 1.22 1.14
0.30 0.34 0.38 0.39 0.42 0.45 0.48 0.53 0.56 0.54 0.52 0.50 0.48 0.47 0.43 0.41 0.42 0.42 0.45 0.49 0.54 0.61 0.59 0.62 0.81 0.87 0.86 0.88 0.94 0.97 0.90 0.80 0.81 0.83 0.80 0.82 0.82 0.82 0.84 0.89 0.99 1.06 1.08
0.33 0.37 0.41 0.41 0.43 0.47 0.48 0.48 0.52 0.54 0.52 0.46 0.42 0.43 0.43 0.43 0.41 0.41 0.46 0.50 0.55 0.61 0.65 0.83 1.01 1.05 0.98 0.91 0.89 0.85 0.77 0.71 0.70 0.70 0.73 0.75 0.79 0.81 0.80 0.79 0.81 0.86 0.91
0.36 0.35 0.39 0.41 0.43 0.46 0.47 0.48 0.47 0.48 0.48 0.46 0.45 0.45 0.47 0.47 0.46 0.46 0.48 0.49 0.54 0.60 0.69 0.82 0.95 1.04 0.99 0.86 0.78 0.74 0.70 0.68 0.67 0.68 0.72 0.77 0.78 0.80 0.79 0.78 0.77 0.82 0.85
0.33 0.40 0.41 0.42 0.42 0.43 0.46 0.47 0.47 0.49 0.53 0.53 0.52 0.55 0.57 0.52 0.49 0.53 0.57 0.58 0.61 0.64 0.65 0.68 0.70 0.71 0.68 0.67 0.70 0.68 0.67 0.70 0.70 0.70 0.73 0.76 0.81 0.86 0.85 0.81 0.79 0.79 0.79
0.33 0.42 0.45 0.40 0.37 0.41 0.48 0.50 0.48 0.49 0.51 0.54 0.54 0.58 0.62 0.56 0.56 0.59 0.59 0.60 0.64 0.68 0.67 0.64 0.63 0.64 0.64 0.62 0.64 0.66 0.66 0.68 0.70 0.72 0.77 0.80 0.81 0.82 0.86 0.86 0.81 0.80 0.80
0.34 0.40 0.43 0.43 0.43 0.46 0.51 0.52 0.53 0.51 0.49 0.48 0.48 0.53 0.59 0.58 0.61 0.61 0.60 0.61 0.63 0.64 0.65 0.63 0.59 0.61 0.64 0.63 0.65 0.68 0.68 0.68 0.69 0.76 0.81 0.85 0.86 0.83 0.82 0.83 0.82 0.82 0.81
0.35 0.38 0.42 0.47 0.49 0.55 0.56 0.55 0.53 0.51 0.50 0.49 0.51 0.52 0.53 0.54 0.57 0.59 0.59 0.62 0.63 0.64 0.64 0.64 0.60 0.59 0.60 0.58 0.59 0.64 0.65 0.65 0.69 0.77 0.86 0.91 0.94 0.93 0.91 0.87 0.83 0.86 0.86
0.37 0.42 0.45 0.49 0.50 0.52 0.53 0.57 0.58 0.56 0.56 0.54 0.53 0.53 0.55 0.54 0.55 0.59 0.58 0.57 0.57 0.59 0.58 0.59 0.58 0.56 0.58 0.61 0.61 0.61 0.61 0.62 0.66 0.73 0.82 0.92 0.95 0.97 1.00 1.02 0.98 0.94 0.94
0.44 0.45 0.47 0.50 0.51 0.53 0.56 0.57 0.60 0.61 0.60 0.60 0.59 0.57 0.57 0.57 0.56 0.59 0.57 0.56 0.56 0.56 0.58 0.57 0.56 0.55 0.56 0.58 0.60 0.62 0.73 0.74 0.70 0.69 0.74 0.87 0.94 0.95 0.96 1.00 1.05 1.06 1.05
0.52 0.53 0.52 0.52 0.56 0.57 0.60 0.61 0.60 0.60 0.61 0.60 0.59 0.59 0.59 0.62 0.64 0.68 0.67 0.68 0.68 0.64 0.64 0.64 0.63 0.62 0.63 0.61 0.61 0.68 0.74 0.70 0.68 0.72 0.74 0.78 0.86 0.92 0.96 0.99 1.02 1.08 1.13

GEFSGL_prec_meanprecacc_282.txt.gz
Total_Precipitation_Accumulation
1.38 1.34 1.20 1.00 0.88 0.87 0.89 0.89 0.86 0.89 0.85 0.87 0.86 0.92 1.04 1.05 1.06 1.23 1.34 1.37 1.50 1.59 1.56 1.60 1.76 1.87 1.99 2.00 2.00 2.00 2.03 2.00 1.87 1.62 1.28 1.13 1.26 1.27 1.29 1.11 1.08 1.13 1.06
1.11 1.00 0.87 0.74 0.69 0.70 0.71 0.68 0.63 0.65 0.62 0.67 0.74 0.74 0.93 1.09 1.12 1.15 1.16 1.15 1.30 1.40 1.42 1.50 1.53 1.53 1.65 1.77 1.88 1.85 1.91 1.94 1.92 1.81 1.52 1.29 1.30 1.39 1.55 1.49 1.35 1.24 1.21
1.05 0.89 0.80 0.74 0.72 0.71 0.65 0.59 0.51 0.49 0.55 0.61 0.71 0.71 0.76 0.91 1.03 1.03 1.02 1.03 1.09 1.16 1.20 1.28 1.30 1.38 1.52 1.52 1.58 1.66 1.72 1.77 1.89 1.85 1.77 1.64 1.48 1.41 1.50 1.47 1.49 1.61 1.54
1.22 1.01 0.90 0.86 0.77 0.69 0.58 0.53 0.47 0.52 0.58 0.60 0.58 0.61 0.67 0.78 0.89 0.90 0.91 0.92 0.93 0.94 1.06 1.14 1.19 1.24 1.34 1.39 1.39 1.52 1.65 1.73 1.77 1.75 1.70 1.63 1.58 1.54 1.54 1.53 1.58 1.70 1.77
0.94 0.72 0.64 0.65 0.64 0.54 0.48 0.47 0.43 0.43 0.42 0.46 0.43 0.44 0.49 0.59 0.65 0.66 0.73 0.81 0.86 0.89 0.99 1.02 1.05 1.04 1.07 1.12 1.11 1.30 1.45 1.63 1.70 1.74 1.65 1.53 1.48 1.50 1.49 1.51 1.59 1.77 1.80
0.63 0.53 0.48 0.44 0.40 0.39 0.40 0.38 0.34 0.31 0.28 0.33 0.35 0.39 0.41 0.44 0.55 0.56 0.58 0.68 0.77 0.82 0.89 0.93 1.02 1.04 0.99 0.93 0.91 0.97 1.09 1.21 1.41 1.55 1.59 1.52 1.44 1.42 1.53 1.65 1.64 1.75 1.86
0.39 0.33 0.32 0.33 0.30 0.28 0.29 0.31 0.32 0.31 0.28 0.30 0.34 0.40 0.37 0.35 0.42 0.41 0.53 0.70 0.72 0.72 0.72 0.86 0.98 1.02 1.05 1.05 0.95 0.93 0.91 0.93 1.03 1.21 1.36 1.38 1.37 1.40 1.51 1.62 1.69 1.74 1.62
0.32 0.27 0.25 0.28 0.28 0.29 0.30 0.32 0.32 0.31 0.30 0.35 0.36 0.41 0.36 0.29 0.34 0.37 0.47 0.59 0.64 0.61 0.63 0.74 0.90 1.02 1.06 1.09 1.04 1.09 1.03 0.91 0.88 0.93 1.12 1.22 1.25 1.42 1.61 1.78 1.89 1.87 1.74
0.28 0.28 0.27 0.29 0.30 0.28 0.26 0.27 0.27 0.27 0.27 0.33 0.42 0.41 0.34 0.27 0.31 0.37 0.47 0.58 0.66 0.64 0.62 0.68 0.85 0.94 1.08 1.12 1.06 1.15 1.13 0.92 0.84 0.93 0.96 1.05 1.18 1.34 1.56 1.79 1.87 1.86 1.81
0.27 0.29 0.32 0.32 0.29 0.26 0.28 0.29 0.26 0.25 0.27 0.31 0.36 0.35 0.31 0.31 0.34 0.35 0.42 0.47 0.58 0.65 0.65 0.68 0.91 0.97 1.04 1.00 0.97 1.17 1.26 1.09 0.83 0.82 0.89 1.03 1.14 1.30 1.54 1.73 1.97 1.97 1.76
0.31 0.34 0.32 0.30 0.29 0.30 0.31 0.33 0.31 0.29 0.28 0.29 0.30 0.30 0.29 0.30 0.35 0.35 0.40 0.36 0.40 0.47 0.54 0.59 0.61 0.76 0.81 0.85 0.94 1.01 1.15 1.04 0.91 0.99 1.08 1.10 1.20 1.28 1.40 1.55 1.78 1.96 1.88
0.29 0.29 0.28 0.27 0.28 0.31 0.34 0.30 0.27 0.27 0.27 0.27 0.26 0.25 0.27 0.28 0.28 0.31 0.36 0.35 0.39 0.42 0.44 0.49 0.54 0.68 0.72 0.75 0.79 0.83 0.90 0.94 0.97 1.11 1.13 1.03 1.09 1.18 1.25 1.38 1.50 1.62 1.52
0.28 0.28 0.30 0.32 0.34 0.34 0.36 0.33 0.29 0.28 0.29 0.30 0.33 0.33 0.32 0.31 0.27 0.31 0.34 0.35 0.38 0.39 0.42 0.51 0.53 0.61 0.59 0.60 0.68 0.71 0.78 0.98 1.12 1.07 1.05 1.00 0.99 1.06 1.12 1.28 1.43 1.54 1.51
0.35 0.35 0.38 0.40 0.42 0.41 0.38 0.35 0.33 0.31 0.34 0.36 0.36 0.36 0.36 0.35 0.31 0.30 0.31 0.33 0.39 0.40 0.44 0.51 0.55 0.58 0.57 0.57 0.64 0.72 0.82 0.98 1.15 1.02 0.90 0.90 0.94 1.05 1.16 1.20 1.26 1.31 1.45
0.33 0.36 0.42 0.44 0.49 0.52 0.49 0.45 0.43 0.42 0.45 0.45 0.42 0.43 0.40 0.37 0.37 0.41 0.38 0.38 0.41 0.43 0.47 0.55 0.66 0.74 0.72 0.73 0.80 0.82 0.85 0.87 0.94 0.88 0.89 0.96 1.03 1.05 1.12 1.19 1.20 1.17 1.17
0.31 0.35 0.39 0.44 0.47 0.50 0.54 0.54 0.57 0.55 0.56 0.53 0.52 0.48 0.42 0.43 0.47 0.49 0.51 0.50 0.51 0.53 0.60 0.61 0.72 0.87 0.92 0.93 0.95 0.96 0.98 0.93 0.94 0.91 0.95 1.00 1.02 1.01 1.02 1.12 1.22 1.24 1.15
0.31 0.36 0.40 0.41 0.44 0.47 0.50 0.54 0.58 0.56 0.54 0.52 0.51 0.51 0.45 0.44 0.45 0.44 0.47 0.51 0.56 0.63 0.61 0.65 0.84 0.90 0.90 0.92 0.97 1.01 0.94 0.84 0.85 0.88 0.85 0.87 0.89 0.89 0.91 0.95 1.04 1.10 1.11
0.34 0.39 0.42 0.44 0.45 0.49 0.50 0.49 0.53 0.55 0.53 0.47 0.44 0.46 0.46 0.45 0.43 0.43 0.48 0.53 0.57 0.63 0.67 0.85 1.03 1.07 1.01 0.95 0.92 0.89 0.81 0.75 0.73 0.74 0.78 0.80 0.85 0.88 0.88 0.87 0.89 0.91 0.95
0.36 0.36 0.40 0.43 0.45 0.48 0.49 0.50 0.49 0.49 0.49 0.47 0.46 0.47 0.50 0.49 0.48 0.48 0.50 0.51 0.56 0.63 0.72 0.85 0.98 1.08 1.03 0.90 0.82 0.79 0.75 0.73 0.71 0.72 0.76 0.81 0.83 0.86 0.85 0.84 0.83 0.89 0.91
0.33 0.41 0.43 0.43 0.43 0.45 0.47 0.49 0.48 0.51 0.54 0.54 0.54 0.57 0.59 0.54 0.52 0.56 0.60 0.61 0.65 0.68 0.70 0.73 0.76 0.77 0.73 0.71 0.75 0.74 0.73 0.75 0.75 0.74 0.77 0.80 0.85 0.91 0.91 0.86 0.85 0.85 0.86
0.34 0.44 0.47 0.41 0.38 0.42 0.49 0.51 0.49 0.50 0.52 0.55 0.55 0.61 0.65 0.59 0.59 0.62 0.62 0.63 0.68 0.72 0.71 0.69 0.70 0.71 0.70 0.68 0.70 0.72 0.73 0.74 0.75 0.77 0.81 0.84 0.85 0.87 0.91 0.91 0.86 0.85 0.86
0.35 0.41 0.44 0.44 0.43 0.47 0.51 0.53 0.54 0.52 0.50 0.50 0.50 0.55 0.61 0.60 0.62 0.63 0.62 0.64 0.66 0.69 0.69 0.68 0.64 0.67 0.71 0.69 0.71 0.74 0.74 0.74 0.74 0.81 0.86 0.90 0.91 0.89 0.88 0.88 0.87 0.87 0.86
0.36 0.39 0.43 0.47 0.50 0.56 0.57 0.56 0.54 0.52 0.52 0.51 0.54 0.55 0.56 0.56 0.59 0.60 0.62 0.64 0.66 0.67 0.68 0.68 0.65 0.64 0.66 0.65 0.65 0.69 0.71 0.70 0.73 0.81 0.91 0.96 0.98 0.98 0.96 0.93 0.89 0.91 0.92
0.38 0.43 0.46 0.49 0.51 0.53 0.54 0.58 0.59 0.57 0.57 0.56 0.55 0.56 0.58 0.57 0.58 0.61 0.60 0.59 0.60 0.61 0.62 0.63 0.62 0.61 0.63 0.66 0.66 0.65 0.65 0.66 0.70 0.76 0.86 0.96 0.99 1.01 1.05 1.07 1.03 1.00 1.00
0.45 0.46 0.47 0.50 0.51 0.54 0.57 0.58 0.61 0.62 0.61 0.61 0.61 0.59 0.61 0.60 0.60 0.62 0.60 0.59 0.58 0.59 0.60 0.61 0.60 0.58 0.59 0.60 0.63 0.65 0.76 0.78 0.73 0.72 0.77 0.90 0.97 0.98 1.00 1.04 1.10 1.11 1.10
0.52 0.53 0.52 0.53 0.57 0.58 0.61 0.62 0.61 0.62 0.62 0.62 0.61 0.61 0.63 0.65 0.68 0.71 0.71 0.71 0.70 0.66 0.66 0.67 0.66 0.66 0.66 0.63 0.64 0.71 0.78 0.74 0.72 0.76 0.77 0.80 0.89 0.95 0.99 1.03 1.06 1.13 1.18

GEFSGL_prec_meanprecacc_288.txt.gz
Total_Precipitation_Accumulation
1.42 1.37 1.22 1.01 0.89 0.89 0.91 0.91 0.87 0.90 0.85 0.87 0.87 0.93 1.06 1.07 1.09 1.27 1.37 1.39 1.51 1.61 1.58 1.62 1.78 1.90 2.01 2.02 2.02 2.02 2.05 2.01 1.88 1.63 1.29 1.13 1.27 1.30 1.34 1.14 1.10 1.15 1.08
1.16 1.04 0.89 0.75 0.70 0.71 0.73 0.70 0.64 0.66 0.62 0.68 0.75 0.76 0.94 1.10 1.13 1.18 1.19 1.18 1.32 1.41 1.43 1.51 1.55 1.56 1.67 1.79 1.91 1.88 1.92 1.96 1.93 1.82 1.53 1.30 1.30 1.40 1.57 1.52 1.38 1.26 1.24
1.09 0.93 0.83 0.76 0.74 0.73 0.66 0.61 0.53 0.50 0.55 0.62 0.72 0.73 0.78 0.92 1.04 1.05 1.05 1.07 1.12 1.17 1.21 1.28 1.31 1.39 1.53 1.54 1.61 1.68 1.74 1.79 1.91 1.86 1.78 1.65 1.49 1.43 1.51 1.50 1.52 1.63 1.56
1.27 1.07 0.93 0.88 0.80 0.73 0.62 0.56 0.49 0.53 0.59 0.61 0.58 0.62 0.68 0.79 0.91 0.93 0.95 0.95 0.95 0.96 1.07 1.14 1.20 1.25 1.35 1.41 1.42 1.55 1.68 1.75 1.79 1.76 1.71 1.64 1.58 1.54 1.55 1.54 1.61 1.73 1.79
0.99 0.78 0.69 0.68 0.67 0.58 0.53 0.49 0.45 0.44 0.43 0.47 0.44 0.45 0.50 0.60 0.67 0.69 0.76 0.84 0.88 0.91 1.00 1.02 1.06 1.04 1.09 1.15 1.15 1.33 1.48 1.65 1.72 1.75 1.65 1.54 1.49 1.51 1.50 1.52 1.60 1.80 1.83
0.67 0.59 0.55 0.49 0.45 0.43 0.43 0.41 0.36 0.33 0.30 0.35 0.37 0.41 0.43 0.45 0.57 0.59 0.59 0.69 0.79 0.84 0.91 0.94 1.02 1.05 1.01 0.96 0.93 0.99 1.11 1.23 1.43 1.56 1.60 1.53 1.45 1.43 1.54 1.66 1.65 1.77 1.88
0.41 0.36 0.36 0.38 0.35 0.33 0.34 0.35 0.35 0.34 0.32 0.34 0.37 0.42 0.38 0.37 0.45 0.42 0.54 0.71 0.73 0.73 0.74 0.88 0.99 1.02 1.07 1.06 0.96 0.94 0.92 0.94 1.04 1.23 1.37 1.38 1.38 1.41 1.51 1.63 1.71 1.76 1.64
0.33 0.29 0.28 0.31 0.31 0.32 0.34 0.36 0.35 0.34 0.33 0.38 0.39 0.43 0.37 0.30 0.36 0.39 0.48 0.59 0.64 0.62 0.65 0.77 0.92 1.04 1.08 1.10 1.06 1.10 1.05 0.92 0.88 0.94 1.12 1.22 1.25 1.42 1.61 1.79 1.90 1.89 1.77
0.28 0.28 0.28 0.31 0.32 0.32 0.31 0.31 0.31 0.31 0.30 0.36 0.44 0.43 0.36 0.29 0.33 0.39 0.49 0.59 0.67 0.66 0.66 0.72 0.88 0.96 1.11 1.15 1.08 1.17 1.15 0.94 0.85 0.93 0.97 1.06 1.19 1.34 1.56 1.79 1.87 1.88 1.85
0.27 0.29 0.33 0.33 0.32 0.31 0.34 0.35 0.31 0.29 0.30 0.34 0.38 0.37 0.32 0.33 0.36 0.38 0.44 0.48 0.59 0.67 0.71 0.73 0.95 1.01 1.09 1.05 1.00 1.20 1.29 1.12 0.85 0.84 0.91 1.05 1.15 1.31 1.55 1.73 1.98 1.98 1.79
0.31 0.34 0.32 0.31 0.31 0.34 0.35 0.38 0.38 0.34 0.31 0.31 0.31 0.31 0.30 0.31 0.36 0.37 0.42 0.37 0.41 0.49 0.57 0.62 0.64 0.80 0.86 0.90 0.96 1.04 1.18 1.08 0.93 1.02 1.11 1.13 1.22 1.30 1.42 1.56 1.80 1.97 1.90
0.29 0.29 0.28 0.27 0.28 0.33 0.37 0.33 0.31 0.33 0.33 0.31 0.29 0.27 0.28 0.29 0.29 0.32 0.36 0.36 0.40 0.44 0.46 0.51 0.56 0.70 0.75 0.80 0.83 0.86 0.94 0.98 1.01 1.15 1.17 1.07 1.12 1.20 1.28 1.41 1.53 1.65 1.55
0.28 0.29 0.31 0.32 0.34 0.35 0.39 0.36 0.32 0.31 0.33 0.34 0.36 0.36 0.34 0.32 0.29 0.33 0.35 0.36 0.40 0.41 0.44 0.53 0.56 0.64 0.61 0.63 0.71 0.75 0.81 1.01 1.15 1.11 1.09 1.03 1.02 1.08 1.14 1.30 1.44 1.56 1.52
0.36 0.36 0.39 0.40 0.43 0.42 0.40 0.39 0.35 0.33 0.37 0.38 0.38 0.39 0.38 0.38 0.33 0.32 0.33 0.36 0.41 0.43 0.47 0.54 0.58 0.62 0.60 0.60 0.67 0.75 0.84 1.01 1.19 1.06 0.94 0.94 0.97 1.07 1.18 1.21 1.27 1.32 1.46
0.34 0.38 0.43 0.45 0.50 0.53 0.50 0.47 0.46 0.44 0.46 0.46 0.43 0.45 0.42 0.39 0.39 0.44 0.41 0.41 0.45 0.46 0.51 0.58 0.69 0.77 0.75 0.75 0.81 0.84 0.87 0.89 0.97 0.93 0.93 1.00 1.07 1.09 1.15 1.21 1.23 1.20 1.19
0.33 0.37 0.41 0.45 0.49 0.52 0.56 0.56 0.59 0.57 0.58 0.55 0.54 0.50 0.44 0.44 0.48 0.51 0.53 0.52 0.54 0.57 0.63 0.65 0.77 0.92 0.96 0.96 0.98 0.99 1.00 0.96 0.97 0.95 0.99 1.04 1.06 1.05 1.06 1.16 1.26 1.28 1.18
0.33 0.37 0.41 0.43 0.45 0.49 0.52 0.56 0.59 0.58 0.56 0.54 0.53 0.53 0.47 0.45 0.46 0.46 0.48 0.53 0.58 0.65 0.64 0.68 0.88 0.95 0.94 0.95 1.00 1.03 0.96 0.85 0.87 0.91 0.88 0.90 0.92 0.93 0.94 0.99 1.07 1.14 1.14
0.35 0.40 0.43 0.44 0.46 0.50 0.51 0.51 0.55 0.57 0.55 0.49 0.46 0.48 0.48 0.48 0.46 0.45 0.49 0.53 0.58 0.65 0.69 0.87 1.05 1.09 1.03 0.97 0.95 0.91 0.83 0.76 0.75 0.76 0.80 0.83 0.88 0.91 0.90 0.90 0.92 0.95 0.99
0.36 0.37 0.40 0.43 0.46 0.49 0.51 0.51 0.51 0.51 0.51 0.49 0.48 0.49 0.52 0.52 0.52 0.51 0.52 0.52 0.58 0.64 0.74 0.87 1.00 1.10 1.05 0.93 0.85 0.81 0.77 0.75 0.73 0.73 0.78 0.84 0.86 0.89 0.87 0.87 0.86 0.92 0.95
0.34 0.41 0.43 0.44 0.44 0.45 0.48 0.50 0.50 0.52 0.56 0.56 0.56 0.60 0.62 0.57 0.54 0.58 0.61 0.62 0.67 0.70 0.72 0.75 0.78 0.79 0.75 0.74 0.79 0.77 0.76 0.79 0.78 0.77 0.80 0.83 0.88 0.95 0.94 0.89 0.88 0.88 0.89
0.34 0.44 0.47 0.42 0.38 0.42 0.49 0.52 0.51 0.51 0.53 0.56 0.57 0.63 0.68 0.62 0.62 0.65 0.65 0.65 0.70 0.75 0.74 0.72 0.72 0.73 0.73 0.71 0.74 0.76 0.77 0.78 0.80 0.81 0.85 0.88 0.90 0.92 0.96 0.95 0.90 0.90 0.90
0.35 0.41 0.45 0.45 0.44 0.48 0.52 0.54 0.56 0.53 0.51 0.51 0.51 0.56 0.64 0.62 0.66 0.66 0.66 0.68 0.70 0.72 0.73 0.71 0.68 0.71 0.75 0.74 0.76 0.79 0.80 0.79 0.80 0.86 0.92 0.95 0.96 0.94 0.93 0.93 0.92 0.91 0.91
0.36 0.39 0.44 0.48 0.51 0.57 0.58 0.56 0.55 0.53 0.52 0.52 0.54 0.55 0.57 0.58 0.61 0.63 0.65 0.68 0.70 0.71 0.72 0.72 0.68 0.68 0.70 0.69 0.70 0.75 0.76 0.76 0.79 0.87 0.96 1.01 1.03 1.03 1.00 0.96 0.92 0.94 0.95
0.39 0.44 0.47 0.50 0.52 0.54 0.55 0.58 0.59 0.58 0.58 0.56 0.55 0.57 0.59 0.58 0.59 0.62 0.62 0.62 0.63 0.65 0.65 0.67 0.67 0.65 0.67 0.70 0.70 0.70 0.70 0.71 0.75 0.81 0.91 1.01 1.04 1.05 1.09 1.10 1.06 1.02 1.02
0.45 0.47 0.48 0.51 0.52 0.55 0.57 0.58 0.62 0.63 0.62 0.62 0.62 0.60 0.62 0.61 0.61 0.63 0.62 0.60 0.60 0.61 0.64 0.65 0.65 0.63 0.64 0.65 0.68 0.71 0.82 0.84 0.77 0.76 0.80 0.93 1.01 1.03 1.04 1.08 1.13 1.14 1.13
0.53 0.54 0.53 0.54 0.58 0.59 0.62 0.63 0.62 0.64 0.65 0.64 0.63 0.63 0.64 0.67 0.69 0.73 0.72 0.72 0.72 0.68 0.69 0.70 0.70 0.71 0.70 0.68 0.68 0.75 0.82 0.78 0.76 0.80 0.81 0.83 0.92 0.98 1.03 1.08 1.11 1.17 1.21